Year,Month,Day,Hour,Minute,Value (Times are PST for insolation in W/m^2)
2016,12,11,00,00,0.00
2016,12,11,00,01,0.00
2016,12,11,00,02,0.00
2016,12,11,00,03,0.00
2016,12,11,00,04,0.00
2016,12,11,00,05,0.00
2016,12,11,00,06,0.00
2016,12,11,00,07,0.00
2016,12,11,00,08,0.00
2016,12,11,00,09,0.00
2016,12,11,00,10,0.00
2016,12,11,00,11,0.00
2016,12,11,00,12,0.00
2016,12,11,00,13,0.00
2016,12,11,00,14,0.00
2016,12,11,00,15,0.00
2016,12,11,00,16,0.00
2016,12,11,00,17,0.00
2016,12,11,00,18,0.00
2016,12,11,00,19,0.00
2016,12,11,00,20,0.00
2016,12,11,00,21,0.00
2016,12,11,00,22,0.00
2016,12,11,00,23,0.00
2016,12,11,00,24,0.00
2016,12,11,00,25,0.00
2016,12,11,00,26,0.00
2016,12,11,00,27,0.00
2016,12,11,00,28,0.00
2016,12,11,00,29,0.00
2016,12,11,00,30,0.00
2016,12,11,00,31,0.00
2016,12,11,00,32,0.00
2016,12,11,00,33,0.00
2016,12,11,00,34,0.00
2016,12,11,00,35,0.00
2016,12,11,00,36,0.00
2016,12,11,00,37,0.00
2016,12,11,00,38,0.00
2016,12,11,00,39,0.00
2016,12,11,00,40,0.00
2016,12,11,00,41,0.00
2016,12,11,00,42,0.00
2016,12,11,00,43,0.00
2016,12,11,00,44,0.00
2016,12,11,00,45,0.00
2016,12,11,00,46,0.00
2016,12,11,00,47,0.00
2016,12,11,00,48,0.00
2016,12,11,00,49,0.00
2016,12,11,00,50,0.00
2016,12,11,00,51,0.00
2016,12,11,00,52,0.00
2016,12,11,00,53,0.00
2016,12,11,00,54,0.00
2016,12,11,00,55,0.00
2016,12,11,00,56,0.00
2016,12,11,00,57,0.00
2016,12,11,00,58,0.00
2016,12,11,00,59,0.00
2016,12,11,01,00,0.00
2016,12,11,01,01,0.00
2016,12,11,01,02,0.00
2016,12,11,01,03,0.00
2016,12,11,01,04,0.00
2016,12,11,01,05,0.00
2016,12,11,01,06,0.00
2016,12,11,01,07,0.00
2016,12,11,01,08,0.00
2016,12,11,01,09,0.00
2016,12,11,01,10,0.00
2016,12,11,01,11,0.00
2016,12,11,01,12,0.00
2016,12,11,01,13,0.00
2016,12,11,01,14,0.00
2016,12,11,01,15,0.00
2016,12,11,01,16,0.00
2016,12,11,01,17,0.00
2016,12,11,01,18,0.00
2016,12,11,01,19,0.00
2016,12,11,01,20,0.00
2016,12,11,01,21,0.00
2016,12,11,01,22,0.00
2016,12,11,01,23,0.00
2016,12,11,01,24,0.00
2016,12,11,01,25,0.00
2016,12,11,01,26,0.00
2016,12,11,01,27,0.00
2016,12,11,01,28,0.00
2016,12,11,01,29,0.00
2016,12,11,01,30,0.00
2016,12,11,01,31,0.00
2016,12,11,01,32,0.00
2016,12,11,01,33,0.00
2016,12,11,01,34,0.00
2016,12,11,01,35,0.00
2016,12,11,01,36,0.00
2016,12,11,01,37,0.00
2016,12,11,01,38,0.00
2016,12,11,01,39,0.00
2016,12,11,01,40,0.00
2016,12,11,01,41,0.00
2016,12,11,01,42,0.00
2016,12,11,01,43,0.00
2016,12,11,01,44,0.00
2016,12,11,01,45,0.00
2016,12,11,01,46,0.00
2016,12,11,01,47,0.00
2016,12,11,01,48,0.00
2016,12,11,01,49,0.00
2016,12,11,01,50,0.00
2016,12,11,01,51,0.00
2016,12,11,01,52,0.00
2016,12,11,01,53,0.00
2016,12,11,01,54,0.00
2016,12,11,01,55,0.00
2016,12,11,01,56,0.00
2016,12,11,01,57,0.00
2016,12,11,01,58,0.00
2016,12,11,01,59,0.00
2016,12,11,02,00,0.00
2016,12,11,02,01,0.00
2016,12,11,02,02,0.00
2016,12,11,02,03,0.00
2016,12,11,02,04,0.00
2016,12,11,02,05,0.00
2016,12,11,02,06,0.00
2016,12,11,02,07,0.00
2016,12,11,02,08,0.00
2016,12,11,02,09,0.00
2016,12,11,02,10,0.00
2016,12,11,02,11,0.00
2016,12,11,02,12,0.00
2016,12,11,02,13,0.00
2016,12,11,02,14,0.00
2016,12,11,02,15,0.00
2016,12,11,02,16,0.00
2016,12,11,02,17,0.00
2016,12,11,02,18,0.00
2016,12,11,02,19,0.00
2016,12,11,02,20,0.00
2016,12,11,02,21,0.00
2016,12,11,02,22,0.00
2016,12,11,02,23,0.00
2016,12,11,02,24,0.00
2016,12,11,02,25,0.00
2016,12,11,02,26,0.00
2016,12,11,02,27,0.00
2016,12,11,02,28,0.00
2016,12,11,02,29,0.00
2016,12,11,02,30,0.00
2016,12,11,02,31,0.00
2016,12,11,02,32,0.00
2016,12,11,02,33,0.00
2016,12,11,02,34,0.00
2016,12,11,02,35,0.00
2016,12,11,02,36,0.00
2016,12,11,02,37,0.00
2016,12,11,02,38,0.00
2016,12,11,02,39,0.00
2016,12,11,02,40,0.00
2016,12,11,02,41,0.00
2016,12,11,02,42,0.00
2016,12,11,02,43,0.00
2016,12,11,02,44,0.00
2016,12,11,02,45,0.00
2016,12,11,02,46,0.00
2016,12,11,02,47,0.00
2016,12,11,02,48,0.00
2016,12,11,02,49,0.00
2016,12,11,02,50,0.00
2016,12,11,02,51,0.00
2016,12,11,02,52,0.00
2016,12,11,02,53,0.00
2016,12,11,02,54,0.00
2016,12,11,02,55,0.00
2016,12,11,02,56,0.00
2016,12,11,02,57,0.00
2016,12,11,02,58,0.00
2016,12,11,02,59,0.00
2016,12,11,03,00,0.00
2016,12,11,03,01,0.00
2016,12,11,03,02,0.00
2016,12,11,03,03,0.00
2016,12,11,03,04,0.00
2016,12,11,03,05,0.00
2016,12,11,03,06,0.00
2016,12,11,03,07,0.00
2016,12,11,03,08,0.00
2016,12,11,03,09,0.00
2016,12,11,03,10,0.00
2016,12,11,03,11,0.00
2016,12,11,03,12,0.00
2016,12,11,03,13,0.00
2016,12,11,03,14,0.00
2016,12,11,03,15,0.00
2016,12,11,03,16,0.00
2016,12,11,03,17,0.00
2016,12,11,03,18,0.00
2016,12,11,03,19,0.00
2016,12,11,03,20,0.00
2016,12,11,03,21,0.00
2016,12,11,03,22,0.00
2016,12,11,03,23,0.00
2016,12,11,03,24,0.00
2016,12,11,03,25,0.00
2016,12,11,03,26,0.00
2016,12,11,03,27,0.00
2016,12,11,03,28,0.00
2016,12,11,03,29,0.00
2016,12,11,03,30,0.00
2016,12,11,03,31,0.00
2016,12,11,03,32,0.00
2016,12,11,03,33,0.00
2016,12,11,03,34,0.00
2016,12,11,03,35,0.00
2016,12,11,03,36,0.00
2016,12,11,03,37,0.00
2016,12,11,03,38,0.00
2016,12,11,03,39,0.00
2016,12,11,03,40,0.00
2016,12,11,03,41,0.00
2016,12,11,03,42,0.00
2016,12,11,03,43,0.00
2016,12,11,03,44,0.00
2016,12,11,03,45,0.00
2016,12,11,03,46,0.00
2016,12,11,03,47,0.00
2016,12,11,03,48,0.00
2016,12,11,03,49,0.00
2016,12,11,03,50,0.00
2016,12,11,03,51,0.00
2016,12,11,03,52,0.00
2016,12,11,03,53,0.00
2016,12,11,03,54,0.00
2016,12,11,03,55,0.00
2016,12,11,03,56,0.00
2016,12,11,03,57,0.00
2016,12,11,03,58,0.00
2016,12,11,03,59,0.00
2016,12,11,04,00,0.00
2016,12,11,04,01,0.00
2016,12,11,04,02,0.00
2016,12,11,04,03,0.00
2016,12,11,04,04,0.00
2016,12,11,04,05,0.00
2016,12,11,04,06,0.00
2016,12,11,04,07,0.00
2016,12,11,04,08,0.00
2016,12,11,04,09,0.00
2016,12,11,04,10,0.00
2016,12,11,04,11,0.00
2016,12,11,04,12,0.00
2016,12,11,04,13,0.00
2016,12,11,04,14,0.00
2016,12,11,04,15,0.00
2016,12,11,04,16,0.00
2016,12,11,04,17,0.00
2016,12,11,04,18,0.00
2016,12,11,04,19,0.00
2016,12,11,04,20,0.00
2016,12,11,04,21,0.00
2016,12,11,04,22,0.00
2016,12,11,04,23,0.00
2016,12,11,04,24,0.00
2016,12,11,04,25,0.00
2016,12,11,04,26,0.00
2016,12,11,04,27,0.00
2016,12,11,04,28,0.00
2016,12,11,04,29,0.00
2016,12,11,04,30,0.00
2016,12,11,04,31,0.00
2016,12,11,04,32,0.00
2016,12,11,04,33,0.00
2016,12,11,04,34,0.00
2016,12,11,04,35,0.00
2016,12,11,04,36,0.00
2016,12,11,04,37,0.00
2016,12,11,04,38,0.00
2016,12,11,04,39,0.00
2016,12,11,04,40,0.00
2016,12,11,04,41,0.00
2016,12,11,04,42,0.00
2016,12,11,04,43,0.00
2016,12,11,04,44,0.00
2016,12,11,04,45,0.00
2016,12,11,04,46,0.00
2016,12,11,04,47,0.00
2016,12,11,04,48,0.00
2016,12,11,04,49,0.00
2016,12,11,04,50,0.00
2016,12,11,04,51,0.00
2016,12,11,04,52,0.00
2016,12,11,04,53,0.00
2016,12,11,04,54,0.00
2016,12,11,04,55,0.00
2016,12,11,04,56,0.00
2016,12,11,04,57,0.00
2016,12,11,04,58,0.00
2016,12,11,04,59,0.00
2016,12,11,05,00,0.00
2016,12,11,05,01,0.00
2016,12,11,05,02,0.00
2016,12,11,05,03,0.00
2016,12,11,05,04,0.00
2016,12,11,05,05,0.00
2016,12,11,05,06,0.00
2016,12,11,05,07,0.00
2016,12,11,05,08,0.00
2016,12,11,05,09,0.00
2016,12,11,05,10,0.00
2016,12,11,05,11,0.00
2016,12,11,05,12,0.00
2016,12,11,05,13,0.00
2016,12,11,05,14,0.00
2016,12,11,05,15,0.00
2016,12,11,05,16,0.00
2016,12,11,05,17,0.00
2016,12,11,05,18,0.00
2016,12,11,05,19,0.00
2016,12,11,05,20,0.00
2016,12,11,05,21,0.00
2016,12,11,05,22,0.00
2016,12,11,05,23,0.00
2016,12,11,05,24,0.00
2016,12,11,05,25,0.00
2016,12,11,05,26,0.00
2016,12,11,05,27,0.00
2016,12,11,05,28,0.00
2016,12,11,05,29,0.00
2016,12,11,05,30,0.00
2016,12,11,05,31,0.00
2016,12,11,05,32,0.00
2016,12,11,05,33,0.00
2016,12,11,05,34,0.00
2016,12,11,05,35,0.00
2016,12,11,05,36,0.00
2016,12,11,05,37,0.00
2016,12,11,05,38,0.00
2016,12,11,05,39,0.00
2016,12,11,05,40,0.00
2016,12,11,05,41,0.00
2016,12,11,05,42,0.00
2016,12,11,05,43,0.00
2016,12,11,05,44,0.00
2016,12,11,05,45,0.00
2016,12,11,05,46,0.00
2016,12,11,05,47,0.00
2016,12,11,05,48,0.00
2016,12,11,05,49,0.00
2016,12,11,05,50,0.00
2016,12,11,05,51,0.00
2016,12,11,05,52,0.00
2016,12,11,05,53,0.00
2016,12,11,05,54,0.00
2016,12,11,05,55,0.00
2016,12,11,05,56,0.00
2016,12,11,05,57,0.00
2016,12,11,05,58,0.00
2016,12,11,05,59,0.00
2016,12,11,06,00,0.00
2016,12,11,06,01,0.00
2016,12,11,06,02,0.00
2016,12,11,06,03,0.00
2016,12,11,06,04,0.00
2016,12,11,06,05,0.00
2016,12,11,06,06,0.00
2016,12,11,06,07,0.00
2016,12,11,06,08,0.00
2016,12,11,06,09,0.00
2016,12,11,06,10,0.00
2016,12,11,06,11,0.00
2016,12,11,06,12,0.00
2016,12,11,06,13,0.00
2016,12,11,06,14,0.00
2016,12,11,06,15,0.00
2016,12,11,06,16,0.00
2016,12,11,06,17,0.00
2016,12,11,06,18,0.00
2016,12,11,06,19,0.00
2016,12,11,06,20,0.00
2016,12,11,06,21,0.00
2016,12,11,06,22,0.00
2016,12,11,06,23,0.00
2016,12,11,06,24,0.00
2016,12,11,06,25,0.00
2016,12,11,06,26,0.00
2016,12,11,06,27,0.00
2016,12,11,06,28,0.00
2016,12,11,06,29,0.00
2016,12,11,06,30,0.00
2016,12,11,06,31,0.00
2016,12,11,06,32,0.00
2016,12,11,06,33,0.00
2016,12,11,06,34,0.00
2016,12,11,06,35,0.00
2016,12,11,06,36,0.00
2016,12,11,06,37,0.00
2016,12,11,06,38,0.00
2016,12,11,06,39,0.00
2016,12,11,06,40,0.00
2016,12,11,06,41,0.00
2016,12,11,06,42,0.00
2016,12,11,06,43,0.00
2016,12,11,06,44,0.00
2016,12,11,06,45,0.00
2016,12,11,06,46,0.00
2016,12,11,06,47,0.00
2016,12,11,06,48,0.00
2016,12,11,06,49,0.00
2016,12,11,06,50,0.00
2016,12,11,06,51,0.00
2016,12,11,06,52,0.00
2016,12,11,06,53,0.00
2016,12,11,06,54,0.00
2016,12,11,06,55,0.00
2016,12,11,06,56,0.00
2016,12,11,06,57,0.00
2016,12,11,06,58,0.00
2016,12,11,06,59,0.00
2016,12,11,07,00,0.00
2016,12,11,07,01,0.00
2016,12,11,07,02,0.00
2016,12,11,07,03,0.00
2016,12,11,07,04,0.00
2016,12,11,07,05,0.00
2016,12,11,07,06,0.00
2016,12,11,07,07,0.00
2016,12,11,07,08,0.00
2016,12,11,07,09,0.00
2016,12,11,07,10,0.00
2016,12,11,07,11,0.00
2016,12,11,07,12,0.00
2016,12,11,07,13,0.00
2016,12,11,07,14,0.00
2016,12,11,07,15,0.00
2016,12,11,07,16,0.00
2016,12,11,07,17,0.00
2016,12,11,07,18,0.00
2016,12,11,07,19,0.00
2016,12,11,07,20,0.00
2016,12,11,07,21,0.00
2016,12,11,07,22,0.00
2016,12,11,07,23,0.00
2016,12,11,07,24,0.00
2016,12,11,07,25,0.00
2016,12,11,07,26,0.00
2016,12,11,07,27,0.00
2016,12,11,07,28,0.00
2016,12,11,07,29,0.00
2016,12,11,07,30,0.00
2016,12,11,07,31,0.00
2016,12,11,07,32,0.00
2016,12,11,07,33,0.00
2016,12,11,07,34,0.00
2016,12,11,07,35,0.00
2016,12,11,07,36,0.00
2016,12,11,07,37,0.00
2016,12,11,07,38,0.00
2016,12,11,07,39,0.00
2016,12,11,07,40,0.00
2016,12,11,07,41,0.00
2016,12,11,07,42,0.00
2016,12,11,07,43,0.00
2016,12,11,07,44,0.00
2016,12,11,07,45,0.00
2016,12,11,07,46,0.00
2016,12,11,07,47,0.00
2016,12,11,07,48,0.00
2016,12,11,07,49,0.00
2016,12,11,07,50,0.00
2016,12,11,07,51,0.00
2016,12,11,07,52,0.00
2016,12,11,07,53,0.00
2016,12,11,07,54,0.00
2016,12,11,07,55,0.00
2016,12,11,07,56,0.00
2016,12,11,07,57,0.00
2016,12,11,07,58,0.00
2016,12,11,07,59,0.00
2016,12,11,08,00,0.00
2016,12,11,08,01,0.00
2016,12,11,08,02,0.00
2016,12,11,08,03,0.00
2016,12,11,08,04,0.00
2016,12,11,08,05,1.20
2016,12,11,08,06,5.00
2016,12,11,08,07,5.00
2016,12,11,08,08,5.00
2016,12,11,08,09,5.00
2016,12,11,08,10,5.00
2016,12,11,08,11,5.00
2016,12,11,08,12,5.20
2016,12,11,08,13,7.00
2016,12,11,08,14,7.00
2016,12,11,08,15,7.90
2016,12,11,08,16,9.00
2016,12,11,08,17,9.00
2016,12,11,08,18,10.40
2016,12,11,08,19,11.00
2016,12,11,08,20,12.10
2016,12,11,08,21,14.30
2016,12,11,08,22,16.50
2016,12,11,08,23,18.40
2016,12,11,08,24,19.90
2016,12,11,08,25,22.20
2016,12,11,08,26,24.30
2016,12,11,08,27,25.80
2016,12,11,08,28,27.70
2016,12,11,08,29,30.10
2016,12,11,08,30,32.20
2016,12,11,08,31,33.60
2016,12,11,08,32,35.80
2016,12,11,08,33,38.00
2016,12,11,08,34,39.60
2016,12,11,08,35,41.40
2016,12,11,08,36,43.70
2016,12,11,08,37,44.10
2016,12,11,08,38,46.10
2016,12,11,08,39,47.40
2016,12,11,08,40,49.70
2016,12,11,08,41,51.80
2016,12,11,08,42,53.00
2016,12,11,08,43,53.60
2016,12,11,08,44,54.00
2016,12,11,08,45,55.70
2016,12,11,08,46,57.90
2016,12,11,08,47,58.30
2016,12,11,08,48,60.50
2016,12,11,08,49,62.00
2016,12,11,08,50,62.00
2016,12,11,08,51,62.00
2016,12,11,08,52,62.00
2016,12,11,08,53,62.80
2016,12,11,08,54,62.10
2016,12,11,08,55,62.00
2016,12,11,08,56,62.00
2016,12,11,08,57,61.30
2016,12,11,08,58,59.10
2016,12,11,08,59,57.00
2016,12,11,09,00,56.00
2016,12,11,09,01,56.00
2016,12,11,09,02,56.00
2016,12,11,09,03,54.10
2016,12,11,09,04,54.00
2016,12,11,09,05,54.00
2016,12,11,09,06,54.00
2016,12,11,09,07,54.00
2016,12,11,09,08,54.00
2016,12,11,09,09,54.00
2016,12,11,09,10,54.00
2016,12,11,09,11,54.00
2016,12,11,09,12,53.00
2016,12,11,09,13,50.60
2016,12,11,09,14,48.40
2016,12,11,09,15,47.00
2016,12,11,09,16,47.00
2016,12,11,09,17,47.00
2016,12,11,09,18,47.00
2016,12,11,09,19,48.60
2016,12,11,09,20,50.80
2016,12,11,09,21,54.40
2016,12,11,09,22,59.20
2016,12,11,09,23,64.30
2016,12,11,09,24,67.80
2016,12,11,09,25,69.00
2016,12,11,09,26,69.60
2016,12,11,09,27,73.00
2016,12,11,09,28,76.60
2016,12,11,09,29,77.00
2016,12,11,09,30,76.60
2016,12,11,09,31,73.40
2016,12,11,09,32,72.00
2016,12,11,09,33,71.00
2016,12,11,09,34,70.00
2016,12,11,09,35,70.00
2016,12,11,09,36,70.00
2016,12,11,09,37,71.80
2016,12,11,09,38,72.00
2016,12,11,09,39,72.00
2016,12,11,09,40,71.30
2016,12,11,09,41,69.60
2016,12,11,09,42,68.00
2016,12,11,09,43,65.80
2016,12,11,09,44,63.60
2016,12,11,09,45,63.00
2016,12,11,09,46,62.00
2016,12,11,09,47,61.70
2016,12,11,09,48,60.00
2016,12,11,09,49,59.30
2016,12,11,09,50,56.20
2016,12,11,09,51,54.00
2016,12,11,09,52,53.30
2016,12,11,09,53,53.00
2016,12,11,09,54,53.80
2016,12,11,09,55,52.80
2016,12,11,09,56,51.00
2016,12,11,09,57,51.00
2016,12,11,09,58,51.00
2016,12,11,09,59,52.00
2016,12,11,10,00,53.00
2016,12,11,10,01,53.70
2016,12,11,10,02,55.60
2016,12,11,10,03,56.00
2016,12,11,10,04,56.00
2016,12,11,10,05,56.00
2016,12,11,10,06,56.70
2016,12,11,10,07,62.00
2016,12,11,10,08,76.30
2016,12,11,10,09,76.20
2016,12,11,10,10,64.60
2016,12,11,10,11,62.00
2016,12,11,10,12,65.20
2016,12,11,10,13,73.40
2016,12,11,10,14,92.20
2016,12,11,10,15,136.60
2016,12,11,10,16,155.70
2016,12,11,10,17,195.00
2016,12,11,10,18,229.10
2016,12,11,10,19,230.00
2016,12,11,10,20,204.70
2016,12,11,10,21,113.10
2016,12,11,10,22,124.60
2016,12,11,10,23,158.20
2016,12,11,10,24,138.20
2016,12,11,10,25,141.90
2016,12,11,10,26,175.40
2016,12,11,10,27,196.50
2016,12,11,10,28,192.80
2016,12,11,10,29,156.60
2016,12,11,10,30,143.80
2016,12,11,10,31,114.00
2016,12,11,10,32,113.70
2016,12,11,10,33,136.40
2016,12,11,10,34,195.80
2016,12,11,10,35,226.90
2016,12,11,10,36,182.80
2016,12,11,10,37,192.50
2016,12,11,10,38,253.60
2016,12,11,10,39,240.40
2016,12,11,10,40,216.70
2016,12,11,10,41,186.60
2016,12,11,10,42,197.00
2016,12,11,10,43,193.60
2016,12,11,10,44,117.20
2016,12,11,10,45,86.80
2016,12,11,10,46,81.30
2016,12,11,10,47,81.30
2016,12,11,10,48,89.00
2016,12,11,10,49,105.00
2016,12,11,10,50,101.40
2016,12,11,10,51,94.80
2016,12,11,10,52,91.10
2016,12,11,10,53,80.70
2016,12,11,10,54,82.10
2016,12,11,10,55,77.60
2016,12,11,10,56,82.20
2016,12,11,10,57,78.10
2016,12,11,10,58,75.30
2016,12,11,10,59,73.00
2016,12,11,11,00,73.20
2016,12,11,11,01,74.00
2016,12,11,11,02,75.50
2016,12,11,11,03,76.00
2016,12,11,11,04,76.00
2016,12,11,11,05,76.00
2016,12,11,11,06,76.30
2016,12,11,11,07,77.00
2016,12,11,11,08,77.00
2016,12,11,11,09,77.00
2016,12,11,11,10,78.50
2016,12,11,11,11,82.20
2016,12,11,11,12,84.20
2016,12,11,11,13,88.40
2016,12,11,11,14,92.00
2016,12,11,11,15,95.00
2016,12,11,11,16,95.90
2016,12,11,11,17,97.00
2016,12,11,11,18,97.70
2016,12,11,11,19,101.00
2016,12,11,11,20,104.60
2016,12,11,11,21,111.30
2016,12,11,11,22,116.80
2016,12,11,11,23,120.00
2016,12,11,11,24,124.80
2016,12,11,11,25,132.00
2016,12,11,11,26,132.00
2016,12,11,11,27,133.40
2016,12,11,11,28,134.00
2016,12,11,11,29,131.50
2016,12,11,11,30,116.10
2016,12,11,11,31,103.20
2016,12,11,11,32,97.70
2016,12,11,11,33,94.30
2016,12,11,11,34,90.40
2016,12,11,11,35,88.70
2016,12,11,11,36,88.00
2016,12,11,11,37,80.70
2016,12,11,11,38,77.40
2016,12,11,11,39,84.10
2016,12,11,11,40,92.30
2016,12,11,11,41,100.20
2016,12,11,11,42,107.20
2016,12,11,11,43,115.20
2016,12,11,11,44,121.20
2016,12,11,11,45,130.20
2016,12,11,11,46,124.30
2016,12,11,11,47,116.20
2016,12,11,11,48,117.60
2016,12,11,11,49,115.10
2016,12,11,11,50,113.40
2016,12,11,11,51,113.50
2016,12,11,11,52,110.40
2016,12,11,11,53,106.20
2016,12,11,11,54,104.20
2016,12,11,11,55,101.80
2016,12,11,11,56,94.20
2016,12,11,11,57,89.00
2016,12,11,11,58,85.30
2016,12,11,11,59,84.90
2016,12,11,12,00,86.00
2016,12,11,12,01,84.70
2016,12,11,12,02,81.80
2016,12,11,12,03,76.80
2016,12,11,12,04,75.90
2016,12,11,12,05,74.40
2016,12,11,12,06,80.20
2016,12,11,12,07,92.80
2016,12,11,12,08,99.50
2016,12,11,12,09,102.00
2016,12,11,12,10,105.50
2016,12,11,12,11,110.20
2016,12,11,12,12,111.00
2016,12,11,12,13,110.40
2016,12,11,12,14,103.80
2016,12,11,12,15,101.20
2016,12,11,12,16,104.40
2016,12,11,12,17,103.40
2016,12,11,12,18,103.20
2016,12,11,12,19,107.80
2016,12,11,12,20,109.00
2016,12,11,12,21,106.90
2016,12,11,12,22,102.90
2016,12,11,12,23,97.90
2016,12,11,12,24,100.70
2016,12,11,12,25,101.00
2016,12,11,12,26,100.00
2016,12,11,12,27,98.70
2016,12,11,12,28,98.00
2016,12,11,12,29,97.10
2016,12,11,12,30,97.00
2016,12,11,12,31,96.60
2016,12,11,12,32,95.50
2016,12,11,12,33,97.00
2016,12,11,12,34,97.00
2016,12,11,12,35,97.00
2016,12,11,12,36,97.00
2016,12,11,12,37,97.00
2016,12,11,12,38,97.00
2016,12,11,12,39,97.00
2016,12,11,12,40,96.50
2016,12,11,12,41,94.30
2016,12,11,12,42,92.10
2016,12,11,12,43,90.40
2016,12,11,12,44,88.60
2016,12,11,12,45,88.00
2016,12,11,12,46,88.00
2016,12,11,12,47,88.10
2016,12,11,12,48,90.20
2016,12,11,12,49,91.60
2016,12,11,12,50,93.70
2016,12,11,12,51,96.50
2016,12,11,12,52,99.20
2016,12,11,12,53,101.40
2016,12,11,12,54,103.60
2016,12,11,12,55,104.90
2016,12,11,12,56,105.00
2016,12,11,12,57,104.80
2016,12,11,12,58,102.80
2016,12,11,12,59,99.20
2016,12,11,13,00,96.40
2016,12,11,13,01,93.70
2016,12,11,13,02,90.80
2016,12,11,13,03,88.40
2016,12,11,13,04,86.10
2016,12,11,13,05,83.90
2016,12,11,13,06,82.50
2016,12,11,13,07,80.30
2016,12,11,13,08,77.70
2016,12,11,13,09,76.00
2016,12,11,13,10,76.00
2016,12,11,13,11,76.00
2016,12,11,13,12,74.30
2016,12,11,13,13,76.10
2016,12,11,13,14,76.80
2016,12,11,13,15,76.90
2016,12,11,13,16,81.10
2016,12,11,13,17,84.00
2016,12,11,13,18,82.20
2016,12,11,13,19,81.00
2016,12,11,13,20,81.00
2016,12,11,13,21,86.00
2016,12,11,13,22,91.60
2016,12,11,13,23,95.80
2016,12,11,13,24,99.30
2016,12,11,13,25,104.20
2016,12,11,13,26,110.80
2016,12,11,13,27,121.20
2016,12,11,13,28,131.80
2016,12,11,13,29,144.20
2016,12,11,13,30,155.20
2016,12,11,13,31,163.10
2016,12,11,13,32,179.00
2016,12,11,13,33,219.80
2016,12,11,13,34,250.00
2016,12,11,13,35,274.20
2016,12,11,13,36,245.30
2016,12,11,13,37,269.70
2016,12,11,13,38,234.50
2016,12,11,13,39,158.10
2016,12,11,13,40,139.80
2016,12,11,13,41,135.00
2016,12,11,13,42,131.60
2016,12,11,13,43,124.00
2016,12,11,13,44,116.80
2016,12,11,13,45,114.00
2016,12,11,13,46,114.00
2016,12,11,13,47,111.30
2016,12,11,13,48,110.70
2016,12,11,13,49,106.90
2016,12,11,13,50,101.30
2016,12,11,13,51,99.10
2016,12,11,13,52,95.10
2016,12,11,13,53,90.90
2016,12,11,13,54,93.80
2016,12,11,13,55,101.00
2016,12,11,13,56,103.90
2016,12,11,13,57,121.00
2016,12,11,13,58,123.80
2016,12,11,13,59,121.80
2016,12,11,14,00,117.00
2016,12,11,14,01,140.40
2016,12,11,14,02,130.60
2016,12,11,14,03,144.40
2016,12,11,14,04,194.20
2016,12,11,14,05,112.90
2016,12,11,14,06,114.00
2016,12,11,14,07,127.70
2016,12,11,14,08,109.30
2016,12,11,14,09,109.50
2016,12,11,14,10,98.40
2016,12,11,14,11,85.50
2016,12,11,14,12,83.20
2016,12,11,14,13,85.50
2016,12,11,14,14,81.00
2016,12,11,14,15,80.40
2016,12,11,14,16,79.80
2016,12,11,14,17,83.50
2016,12,11,14,18,86.00
2016,12,11,14,19,86.00
2016,12,11,14,20,95.60
2016,12,11,14,21,97.50
2016,12,11,14,22,86.30
2016,12,11,14,23,71.40
2016,12,11,14,24,68.40
2016,12,11,14,25,65.00
2016,12,11,14,26,60.90
2016,12,11,14,27,61.30
2016,12,11,14,28,62.80
2016,12,11,14,29,63.00
2016,12,11,14,30,72.30
2016,12,11,14,31,62.00
2016,12,11,14,32,62.30
2016,12,11,14,33,64.50
2016,12,11,14,34,67.90
2016,12,11,14,35,67.80
2016,12,11,14,36,65.60
2016,12,11,14,37,62.80
2016,12,11,14,38,60.30
2016,12,11,14,39,57.90
2016,12,11,14,40,55.60
2016,12,11,14,41,54.00
2016,12,11,14,42,54.00
2016,12,11,14,43,55.00
2016,12,11,14,44,56.00
2016,12,11,14,45,56.00
2016,12,11,14,46,56.00
2016,12,11,14,47,57.90
2016,12,11,14,48,57.70
2016,12,11,14,49,55.50
2016,12,11,14,50,53.70
2016,12,11,14,51,51.00
2016,12,11,14,52,47.40
2016,12,11,14,53,43.40
2016,12,11,14,54,40.50
2016,12,11,14,55,39.10
2016,12,11,14,56,37.10
2016,12,11,14,57,37.00
2016,12,11,14,58,37.00
2016,12,11,14,59,36.20
2016,12,11,15,00,35.00
2016,12,11,15,01,35.00
2016,12,11,15,02,37.80
2016,12,11,15,03,39.00
2016,12,11,15,04,39.90
2016,12,11,15,05,40.00
2016,12,11,15,06,41.00
2016,12,11,15,07,44.00
2016,12,11,15,08,44.80
2016,12,11,15,09,46.50
2016,12,11,15,10,48.20
2016,12,11,15,11,46.80
2016,12,11,15,12,46.00
2016,12,11,15,13,44.00
2016,12,11,15,14,41.20
2016,12,11,15,15,36.00
2016,12,11,15,16,33.00
2016,12,11,15,17,32.50
2016,12,11,15,18,30.90
2016,12,11,15,19,28.70
2016,12,11,15,20,26.50
2016,12,11,15,21,25.10
2016,12,11,15,22,25.00
2016,12,11,15,23,25.00
2016,12,11,15,24,25.00
2016,12,11,15,25,25.00
2016,12,11,15,26,23.90
2016,12,11,15,27,23.00
2016,12,11,15,28,21.50
2016,12,11,15,29,21.00
2016,12,11,15,30,19.20
2016,12,11,15,31,18.90
2016,12,11,15,32,18.00
2016,12,11,15,33,18.00
2016,12,11,15,34,17.10
2016,12,11,15,35,16.00
2016,12,11,15,36,16.00
2016,12,11,15,37,14.50
2016,12,11,15,38,14.00
2016,12,11,15,39,14.00
2016,12,11,15,40,14.00
2016,12,11,15,41,14.00
2016,12,11,15,42,14.00
2016,12,11,15,43,14.00
2016,12,11,15,44,12.70
2016,12,11,15,45,12.00
2016,12,11,15,46,12.00
2016,12,11,15,47,12.00
2016,12,11,15,48,11.90
2016,12,11,15,49,11.00
2016,12,11,15,50,11.00
2016,12,11,15,51,10.10
2016,12,11,15,52,9.00
2016,12,11,15,53,9.00
2016,12,11,15,54,9.00
2016,12,11,15,55,9.00
2016,12,11,15,56,7.10
2016,12,11,15,57,7.00
2016,12,11,15,58,7.00
2016,12,11,15,59,7.00
2016,12,11,16,00,7.00
2016,12,11,16,01,7.00
2016,12,11,16,02,5.70
2016,12,11,16,03,5.00
2016,12,11,16,04,5.00
2016,12,11,16,05,5.00
2016,12,11,16,06,5.00
2016,12,11,16,07,3.50
2016,12,11,16,08,0.00
2016,12,11,16,09,0.00
2016,12,11,16,10,0.00
2016,12,11,16,11,0.00
2016,12,11,16,12,0.00
2016,12,11,16,13,0.00
2016,12,11,16,14,0.00
2016,12,11,16,15,0.00
2016,12,11,16,16,0.00
2016,12,11,16,17,0.00
2016,12,11,16,18,0.00
2016,12,11,16,19,0.00
2016,12,11,16,20,0.00
2016,12,11,16,21,0.00
2016,12,11,16,22,0.00
2016,12,11,16,23,0.00
2016,12,11,16,24,0.00
2016,12,11,16,25,0.00
2016,12,11,16,26,0.00
2016,12,11,16,27,0.00
2016,12,11,16,28,0.00
2016,12,11,16,29,0.00
2016,12,11,16,30,0.00
2016,12,11,16,31,0.00
2016,12,11,16,32,0.00
2016,12,11,16,33,0.00
2016,12,11,16,34,0.00
2016,12,11,16,35,0.00
2016,12,11,16,36,0.00
2016,12,11,16,37,0.00
2016,12,11,16,38,0.00
2016,12,11,16,39,0.00
2016,12,11,16,40,0.00
2016,12,11,16,41,0.00
2016,12,11,16,42,0.00
2016,12,11,16,43,0.00
2016,12,11,16,44,0.00
2016,12,11,16,45,0.00
2016,12,11,16,46,0.00
2016,12,11,16,47,0.00
2016,12,11,16,48,0.00
2016,12,11,16,49,0.00
2016,12,11,16,50,0.00
2016,12,11,16,51,0.00
2016,12,11,16,52,0.00
2016,12,11,16,53,0.00
2016,12,11,16,54,0.00
2016,12,11,16,55,0.00
2016,12,11,16,56,0.00
2016,12,11,16,57,0.00
2016,12,11,16,58,0.00
2016,12,11,16,59,0.00
2016,12,11,17,00,0.00
2016,12,11,17,01,0.00
2016,12,11,17,02,0.00
2016,12,11,17,03,0.00
2016,12,11,17,04,0.00
2016,12,11,17,05,0.00
2016,12,11,17,06,0.00
2016,12,11,17,07,0.00
2016,12,11,17,08,0.00
2016,12,11,17,09,0.00
2016,12,11,17,10,0.00
2016,12,11,17,11,0.00
2016,12,11,17,12,0.00
2016,12,11,17,13,0.00
2016,12,11,17,14,0.00
2016,12,11,17,15,0.00
2016,12,11,17,16,0.00
2016,12,11,17,17,0.00
2016,12,11,17,18,0.00
2016,12,11,17,19,0.00
2016,12,11,17,20,0.00
2016,12,11,17,21,0.00
2016,12,11,17,22,0.00
2016,12,11,17,23,0.00
2016,12,11,17,24,0.00
2016,12,11,17,25,0.00
2016,12,11,17,26,0.00
2016,12,11,17,27,0.00
2016,12,11,17,28,0.00
2016,12,11,17,29,0.00
2016,12,11,17,30,0.00
2016,12,11,17,31,0.00
2016,12,11,17,32,0.00
2016,12,11,17,33,0.00
2016,12,11,17,34,0.00
2016,12,11,17,35,0.00
2016,12,11,17,36,0.00
2016,12,11,17,37,0.00
2016,12,11,17,38,0.00
2016,12,11,17,39,0.00
2016,12,11,17,40,0.00